Hourly Data Report for March 09, 2012

All times are specified in Local Standard Time (LST). Add 1 hour to adjust for Daylight Saving Time where and when it is observed.

MIRAMICHI RCS
NEW BRUNSWICK

47°00'34.000" N
65°27'54.000" W
33.00 m
8100989
71744
ACQ

Download Data

Hourly Data (March 2012)
Hourly Data Report for March 9, 2012
TIME Temp Definition
°C
Dew Point Definition
°C
Rel Hum Definition
%
Wind Dir Definition
10's deg

Wind Spd Definition
km/h
Visibility Definition
km
Stn Press Definition
kPa
Hmdx Definition


Wind Chill Definition


Weather Definition


00:00 7.9 4.5 79 21 35   99.36     LegendNANA
01:00 7.9 4.9 81 21 28   99.24     LegendNANA
02:00 7.6 5.6 87 21 30   99.16     LegendNANA
03:00 8.0 6.4 90 22 32   99.08     LegendNANA
04:00 7.7 4.8 82 28 19   99.23     LegendNANA
05:00 5.6 3.8 88 25 17   99.33     LegendNANA
06:00 4.8 3.0 88 24 19   99.35     LegendNANA
07:00 3.3 1.4 87 27 20   99.44     LegendNANA
08:00 2.4 0.8 89 24 24   99.55     LegendNANA
09:00 1.0 -2.5 77 28 20   99.75     LegendNANA
10:00 1.3 -4.5 65 29 24   99.94     LegendNANA
11:00 1.2 -5.9 59 28 22   100.09     LegendNANA
12:00 0.6 -8.6 50 27 32   100.28     LegendNANA
13:00 1.2 -9.3 45 28 24   100.37     LegendNANA
14:00 1.2 -9.6 44 28 26   100.47     LegendNANA
15:00 1.4 -10.3 41 27 28   100.54     LegendNANA
16:00 1.7 -10.9 39 30 20   100.66     LegendNANA
17:00 1.5 -11.8 36 29 19   100.82     LegendNANA
18:00 0.4 -11.9 39 28 17   100.97     LegendNANA
19:00 -0.8 -11.0 46 27 11   101.13   -5 LegendNANA
20:00 -1.5 -11.9 45 27 13   101.26   -6 LegendNANA
21:00 -2.0 -12.4 45 28 13   101.36   -6 LegendNANA
22:00 -2.9 -12.9 46 26 7   101.47   -6 LegendNANA
23:00 -3.7 -12.9 49 29 6   101.49   -6 LegendNANA

Notes on Data Quality.

Legend

  • E = Estimated
  • M = Missing
  • NA = Not Available
Date modified: